Location: Unspecified
(0.0000°N, 1.0000°E)
Time: 09:00:12
(UTC+02:00)

Amateur Radio Satellites - All Passes

Search period start: 28 August 2016 08:30
Search period end: 29 August 2016 08:30
Location: Unspecified, 0.0000°N, 1.0000°E

Satellite Date Start Highest point End Downlink Frequencies (MHz)
Time Altitude Azimuth
CINEMA 3 28 Aug 08:35:47 08:38:26 16° 101° (ESE) 08:41:04 145.822/145.860
BEESAT 3 28 Aug 08:36:04 08:38:09 14° 112° (ESE) 08:40:13 437.485
Cosmos 2491 28 Aug 08:46:20 08:52:11 20° 267° (W) 08:58:03 435.465 / 435.565
NOAA 18 28 Aug 08:52:12 08:56:34 25° 283° (WNW) 09:00:56 137.9125
SEEDS 28 Aug 08:54:59 08:57:16 14° 102° (ESE) 08:59:31 437.485
STRAND 1 28 Aug 09:05:22 09:10:28 68° 258° (WSW) 09:15:32 437.568
HO-68 28 Aug 09:07:57 09:14:46 49° 105° (ESE) 09:21:35 435.675
CANX-2 28 Aug 09:15:02 09:19:12 56° 101° (E) 09:23:25 2200.000
AIST 1 28 Aug 09:17:43 09:19:37 13° 94° (E) 09:21:31
CUTE 1.7 + AOD 2 28 Aug 09:21:05 09:25:16 57° 102° (ESE) 09:29:28 437.475
AAUSAT CUBESAT 2 28 Aug 09:24:52 09:27:40 17° 102° (ESE) 09:30:28 437.432
COMPASS 1 28 Aug 09:32:15 09:35:58 31° 102° (ESE) 09:39:42 437.405
Cosmos 2504 28 Aug 09:34:30 09:41:54 31° 272° (W) 09:49:06 435.465 / 435.565
DOVE 4 28 Aug 09:35:06 09:37:01 12° 283° (WNW) 09:38:55 437.250
SRMSAT 28 Aug 09:44:34 09:50:34 73° 159° (SSE) 09:56:32 437.500
BEESAT 2 28 Aug 09:54:08 09:58:03 89° 96° (E) 10:01:58 435.950
JUGNU 28 Aug 09:57:29 10:02:37 29° 342° (NNW) 10:07:45 437.505
Oscar 11 28 Aug 10:09:06 10:12:33 23° 102° (ESE) 10:16:00 145.826/435.025
CINEMA 3 28 Aug 10:12:28 10:15:20 18° 282° (WNW) 10:18:10 145.822/145.860
BEESAT 3 28 Aug 10:12:48 10:15:33 18° 292° (WNW) 10:18:17 437.485
FUNcube-1 28 Aug 10:16:44 10:20:12 26° 102° (ESE) 10:23:43 145.935
PHONESAT 2.4 28 Aug 10:19:14 10:20:36 12° 42° (NE) 10:21:59 2401.200-2431.200
UWE-3 28 Aug 10:23:52 10:27:58 71° 101° (ESE) 10:32:08 435.000/436.395/437.385
CUBEBUG 2 28 Aug 10:26:57 10:30:59 58° 282° (WNW) 10:35:05 437.445
PRISM 28 Aug 10:27:15 10:31:19 78° 259° (W) 10:35:22 437.425
SEEDS 28 Aug 10:29:24 10:32:40 22° 281° (WNW) 10:35:58 437.485
ZACube-1 28 Aug 10:37:45 10:41:49 61° 101° (E) 10:45:59 437.345
AIST 1 28 Aug 10:53:33 10:56:55 22° 274° (W) 11:00:18
TIGRISAT 28 Aug 10:55:42 10:57:38 12° 78° (ENE) 10:59:33 435.000
HO-68 28 Aug 10:57:43 11:02:08 18° 285° (WNW) 11:06:35 435.675
DELFI C3 28 Aug 11:00:01 11:03:47 40° 102° (ESE) 11:07:35 145.870
AAUSAT CUBESAT 2 28 Aug 11:00:05 11:02:53 17° 281° (WNW) 11:05:41 437.432
CUSAT 1 28 Aug 11:19:42 11:26:23 31° 86° (E) 11:33:09 437.405
HUMSAT D 28 Aug 11:21:32 11:25:12 32° 102° (ESE) 11:28:56 437.325/437.525
UNISAT 6 28 Aug 11:22:09 11:26:21 32° 78° (ENE) 11:30:29 437.425
SO-50 28 Aug 11:28:03 11:32:27 80° 248° (WSW) 11:36:50 436.795
SRMSAT 28 Aug 11:34:13 11:39:49 41° 340° (NNW) 11:45:23 437.500
Oscar 11 28 Aug 11:46:09 11:48:24 14° 282° (WNW) 11:50:41 145.826/435.025
JUGNU 28 Aug 11:49:17 11:52:16 14° 349° (N) 11:55:13 437.505
GONETS M04 28 Aug 11:51:01 11:57:18 22° 93° (E) 12:03:32
PHONESAT 2.4 28 Aug 11:54:18 11:56:49 25° 222° (SW) 11:59:21 2401.200-2431.200
FUNcube-1 28 Aug 11:55:04 11:56:13 11° 281° (W) 11:57:20 145.935
ANTELSAT 28 Aug 11:58:33 12:03:16 79° 259° (W) 12:07:54 437.575/2403.000
PCSat 28 Aug 12:08:22 12:13:39 54° 289° (WNW) 12:18:53 145.827
AIST 2 28 Aug 12:08:30 12:12:34 83° 294° (WNW) 12:16:38 435.215
ESTCUBE 1 28 Aug 12:09:20 12:11:59 15° 102° (ESE) 12:14:38 437.505/2401.250
DANDE 28 Aug 12:18:22 12:25:07 40° 88° (E) 12:32:44 436.750
DUCHIFAT 1 28 Aug 12:29:24 12:32:17 18° 78° (ENE) 12:35:10 145.980
TIGRISAT 28 Aug 12:29:52 12:34:03 32° 258° (WSW) 12:38:10 435.000
QB50P2 28 Aug 12:32:01 12:35:33 25° 78° (ENE) 12:39:04 145.880/145.840
POLYITAN 1 28 Aug 12:34:29 12:38:04 26° 78° (ENE) 12:41:37 437.675
RS-15 28 Aug 12:36:22 12:47:55 49° 69° (ENE) 12:58:56 29.354- 29.394
Cosmos 2499 28 Aug 12:37:13 12:45:20 42° 94° (E) 12:52:57 435.465 / 435.565
NANOSAT C BR1 28 Aug 12:42:31 12:46:17 30° 78° (ENE) 12:50:02 145.865
AUBIESAT-1 28 Aug 13:00:39 13:04:04 48° 286° (WNW) 13:07:21 437.475
UNISAT 6 28 Aug 13:00:53 13:02:45 12° 257° (WSW) 13:04:37 437.425
CUSAT 1 28 Aug 13:01:08 13:08:05 36° 265° (W) 13:15:08 437.405
VELOX 1 28 Aug 13:01:50 13:05:54 36° 102° (ESE) 13:09:58 145.980
CUBEBUG 1 28 Aug 13:02:37 13:06:51 49° 102° (ESE) 13:11:05 437.445
M-CUBED/EXP-1 PRIME 28 Aug 13:07:07 13:10:12 27° 286° (WNW) 13:13:08 437.505
50 SAT 28 Aug 13:17:13 13:20:50 66° 102° (ESE) 13:24:30 437.505
DX 1 28 Aug 13:17:40 13:21:40 36° 102° (ESE) 13:25:40 434.975-435.025
SPROUT 28 Aug 13:18:47 13:22:16 25° 102° (ESE) 13:25:46 437.525
BUGSAT 1 28 Aug 13:21:46 13:25:35 34° 78° (ENE) 13:29:25 437.445
O/OREOS (USA 219) 28 Aug 13:24:21 13:27:42 21° 105° (ESE) 13:31:03 437.305
SRMSAT 28 Aug 13:25:29 13:29:22 18° 345° (NNW) 13:33:16 437.500
QB50P1 28 Aug 13:26:22 13:30:33 52° 258° (WSW) 13:34:43 145.935-145.965
POPSAT HIP 1 28 Aug 13:36:37 13:40:36 38° 258° (WSW) 13:44:34 437.405
JAS-2 28 Aug 13:39:47 13:45:06 66° 78° (ENE) 13:50:13 435.910
ESTCUBE 1 28 Aug 13:44:52 13:48:30 24° 282° (WNW) 13:52:11 437.505/2401.250
GONETS M04 28 Aug 13:45:32 13:53:42 46° 273° (W) 14:01:55
AISAT 28 Aug 13:50:44 13:54:51 40° 282° (WNW) 13:59:00 437.250
UKube-1 28 Aug 13:56:53 14:01:12 81° 280° (W) 14:05:30 .
DANDE 28 Aug 14:01:40 14:07:41 27° 263° (W) 14:14:20 436.750
DUCHIFAT 1 28 Aug 14:04:48 14:07:42 18° 258° (WSW) 14:10:36 145.980
QB50P2 28 Aug 14:09:11 14:11:04 13° 258° (WSW) 14:12:59 145.880/145.840
POLYITAN 1 28 Aug 14:11:44 14:13:35 13° 258° (WSW) 14:15:26 437.675
NANOSAT C BR1 28 Aug 14:21:18 14:21:44 10° 258° (WSW) 14:22:10 145.865
Cosmos 2499 28 Aug 14:31:26 14:37:59 24° 272° (W) 14:44:18 435.465 / 435.565
Gurwin Techsat 1B 28 Aug 14:45:38 14:49:18 19° 77° (ENE) 14:52:59 435.225
RS-15 28 Aug 14:49:54 14:59:52 31° 249° (WSW) 15:09:33 29.354- 29.394
SPROUT 28 Aug 14:56:12 14:57:57 12° 282° (WNW) 14:59:41 437.525
SWISSCUBE 28 Aug 14:59:53 15:02:06 13° 103° (ESE) 15:04:19 437.505
O/OREOS (USA 219) 28 Aug 15:04:06 15:06:50 16° 285° (WNW) 15:09:32 437.305
Oscar 19 28 Aug 15:08:51 15:14:00 79° 258° (WSW) 15:19:08 437.125/150
TISAT 1 28 Aug 15:11:03 15:15:04 50° 282° (WNW) 15:19:07 437.305
BEESAT 28 Aug 15:15:47 15:19:08 19° 103° (ESE) 15:22:31 436.000
SRMSAT 28 Aug 15:18:51 15:19:30 10° 355° (N) 15:20:08 437.500
JUGNU 28 Aug 15:30:00 15:32:34 13° 10° (N) 15:35:06 437.505
AO-7 28 Aug 16:00:15 16:05:44 19° 73° (ENE) 16:11:11 29.400- 29.500
ITUPSAT 1 28 Aug 16:02:07 16:06:54 80° 103° (ESE) 16:11:42 437.325
ITAMSAT 1 28 Aug 16:24:15 16:29:26 66° 77° (ENE) 16:34:34 435.822/435.867
Gurwin Techsat 1B 28 Aug 16:24:32 16:28:59 27° 257° (WSW) 16:33:25 435.225
SWISSCUBE 28 Aug 16:35:25 16:39:36 31° 282° (WNW) 16:43:50 437.505
KKS-1 28 Aug 16:50:58 16:54:16 21° 102° (ESE) 16:57:33 437.445
BEESAT 28 Aug 16:53:03 16:56:39 22° 283° (WNW) 17:00:17 436.000
MOZHAYETS 4 28 Aug 17:00:08 17:04:26 40° 102° (ESE) 17:08:46
AO-85 28 Aug 17:06:49 17:10:38 87° 60° (ENE) 17:14:28 145.980
SRMSAT 28 Aug 17:08:39 17:09:52 11° 6° (N) 17:11:04 437.500
JUGNU 28 Aug 17:17:25 17:22:15 26° 18° (NNE) 17:27:03 437.505
STARS 28 Aug 17:24:53 17:28:23 24° 102° (ESE) 17:31:54 437.465
AO-7 28 Aug 17:49:59 17:58:06 56° 254° (WSW) 18:06:13 29.400- 29.500
YUBILEINY 28 Aug 18:12:41 18:19:12 24° 87° (E) 18:25:41 435.215
CUBESAT XI-V 28 Aug 18:22:00 18:26:19 37° 102° (ESE) 18:30:39 437.345
HORYU 2 28 Aug 18:24:45 18:29:08 53° 78° (ENE) 18:33:28 437.375
KKS-1 28 Aug 18:27:42 18:30:33 17° 282° (WNW) 18:33:24 437.445
SRMSAT 28 Aug 18:55:48 18:59:56 19° 15° (NNE) 19:04:03 437.500
Cubesat XI-IV 28 Aug 18:59:18 19:02:46 17° 77° (ENE) 19:06:13 437.490
STARS 28 Aug 19:02:13 19:04:29 14° 282° (WNW) 19:06:44 437.465
BRITE-PL 28 Aug 19:02:28 19:06:40 47° 78° (ENE) 19:11:10 437.365/2234.400
JUGNU 28 Aug 19:05:35 19:11:25 68° 21° (NNE) 19:17:14 437.505
NOAA 15 28 Aug 19:08:42 19:13:18 32° 77° (ENE) 19:17:54 137.62
CUTE-I 28 Aug 19:10:08 19:14:23 24° 77° (ENE) 19:18:37 437.470
Cosmos 2491 28 Aug 19:20:47 19:29:31 85° 274° (W) 19:38:14 435.465 / 435.565
ISS 28 Aug 19:40:16 19:43:02 26° 235° (SW) 19:45:50 145.825
Cosmos 2504 28 Aug 19:52:48 19:59:25 40° 87° (E) 20:06:20 435.465 / 435.565
NOAA 18 28 Aug 19:55:07 20:00:40 74° 77° (ENE) 20:06:11 137.9125
LilacSat-2 28 Aug 19:58:52 20:02:44 66° 259° (WSW) 20:06:34 437.200
STRAND 1 28 Aug 20:00:37 20:04:03 18° 103° (ESE) 20:07:29 437.568
CUBESAT XI-V 28 Aug 20:02:27 20:03:24 11° 282° (WNW) 20:04:22 437.345
YUBILEINY 28 Aug 20:07:34 20:15:35 43° 267° (W) 20:23:39 435.215
GOMX 1 28 Aug 20:12:16 20:16:47 55° 259° (WSW) 20:21:37 467.674
DOVE 4 28 Aug 20:14:45 20:19:29 56° 78° (ENE) 20:24:28 437.250
BEESAT 3 28 Aug 20:28:15 20:30:29 15° 68° (ENE) 20:32:42 437.485
Cubesat XI-IV 28 Aug 20:37:53 20:42:33 30° 257° (WSW) 20:47:12 437.490
SRMSAT 28 Aug 20:43:46 20:49:25 46° 20° (NNE) 20:55:07 437.500
NOAA 15 28 Aug 20:49:41 20:52:48 16° 257° (WSW) 20:55:54 137.62
CUTE-I 28 Aug 20:50:06 20:54:09 22° 257° (WSW) 20:58:11 437.470
CINEMA 3 28 Aug 20:50:08 20:54:34 33° 78° (ENE) 20:59:01 145.822/145.860
JUGNU 28 Aug 20:54:56 21:00:27 43° 200° (SSW) 21:05:59 437.505
HO-68 28 Aug 20:59:43 21:06:24 41° 76° (ENE) 21:13:02 435.675
SEEDS 28 Aug 20:59:58 21:02:38 16° 79° (ENE) 21:05:16 437.485
CANX-2 28 Aug 21:21:35 21:25:49 71° 78° (ENE) 21:29:59 2200.000
AIST 1 28 Aug 21:23:14 21:26:14 18° 86° (E) 21:29:13
CUTE 1.7 + AOD 2 28 Aug 21:27:31 21:31:44 72° 79° (E) 21:35:55 437.475
AAUSAT CUBESAT 2 28 Aug 21:28:25 21:31:22 19° 79° (ENE) 21:34:17 437.432
COMPASS 1 28 Aug 21:36:28 21:40:15 35° 79° (ENE) 21:44:01 437.405
STRAND 1 28 Aug 21:38:42 21:42:56 27° 283° (WNW) 21:47:13 437.568
BEESAT 2 28 Aug 21:47:33 21:51:32 86° 250° (WSW) 21:55:30 435.950
Cosmos 2504 28 Aug 21:47:44 21:52:30 19° 266° (W) 21:57:26 435.465 / 435.565
BEESAT 3 28 Aug 22:05:07 22:07:53 18° 248° (WSW) 22:10:39 437.485
Oscar 11 28 Aug 22:17:31 22:21:21 31° 79° (ENE) 22:25:08 145.826/435.025
FUNcube-1 28 Aug 22:25:42 22:29:57 39° 79° (E) 22:34:07 145.935
CINEMA 3 28 Aug 22:28:55 22:31:24 14° 258° (WSW) 22:33:56 145.822/145.860
PRISM 28 Aug 22:29:55 22:34:04 71° 281° (W) 22:38:13 437.425
SRMSAT 28 Aug 22:32:45 22:38:38 64° 201° (SSW) 22:44:34 437.500
UWE-3 28 Aug 22:34:40 22:39:21 78° 258° (WSW) 22:43:57 435.000/436.395/437.385
SEEDS 28 Aug 22:35:11 22:38:04 18° 258° (WSW) 22:40:56 437.485
CUBEBUG 2 28 Aug 22:39:02 22:43:32 41° 258° (WSW) 22:47:58 437.445
JUGNU 28 Aug 22:45:54 22:49:49 18° 195° (SSW) 22:53:45 437.505
ZACube-1 28 Aug 22:47:20 22:51:55 89° 82° (E) 22:56:26 437.345
HO-68 28 Aug 22:48:34 22:53:46 22° 255° (WSW) 22:58:59 435.675
DELFI C3 28 Aug 22:58:59 23:02:39 37° 79° (ENE) 23:06:16 145.870
AIST 1 28 Aug 23:00:50 23:03:32 16° 266° (W) 23:06:14
PCSat 28 Aug 23:01:57 23:06:40 31° 71° (ENE) 23:11:22 145.827
AAUSAT CUBESAT 2 28 Aug 23:04:11 23:06:34 15° 258° (WSW) 23:08:56 437.432
TIGRISAT 28 Aug 23:07:49 23:10:29 16° 102° (ESE) 23:13:11 435.000
PHONESAT 2.4 28 Aug 23:20:04 23:23:00 48° 317° (NW) 23:25:55 2401.200-2431.200
HUMSAT D 28 Aug 23:26:14 23:30:12 38° 79° (E) 23:34:05 437.325/437.525
M-CUBED/EXP-1 PRIME 28 Aug 23:34:17 23:35:06 10° 73° (ENE) 23:35:56 437.505
UNISAT 6 28 Aug 23:35:19 23:39:23 46° 102° (ESE) 23:43:31 437.425
SO-50 28 Aug 23:40:28 23:45:03 44° 292° (WNW) 23:49:40 436.795
Oscar 11 28 Aug 23:56:37 23:57:11 10° 258° (WSW) 23:57:45 145.826/435.025
CUSAT 1 29 Aug 00:02:19 00:04:50 43° 96° (E) 00:07:20 437.405
AIST 2 29 Aug 00:06:44 00:10:52 66° 249° (WSW) 00:14:59 435.215
ANTELSAT 29 Aug 00:12:11 00:16:17 49° 281° (WNW) 00:20:27 437.575/2403.000
RS-15 29 Aug 00:18:56 00:28:51 39° 111° (ESE) 00:39:05 29.354- 29.394
ESTCUBE 1 29 Aug 00:22:34 00:26:07 23° 78° (ENE) 00:29:39 437.505/2401.250
GONETS M04 29 Aug 00:22:41 00:30:58 45° 87° (E) 00:39:12
SRMSAT 29 Aug 00:23:13 00:28:02 25° 197° (SSW) 00:32:53 437.500
AISAT 29 Aug 00:28:25 00:30:19 13° 78° (ENE) 00:32:13 437.250
DUCHIFAT 1 29 Aug 00:34:36 00:37:42 20° 102° (ESE) 00:40:49 145.980
QB50P2 29 Aug 00:38:08 00:41:49 30° 102° (ESE) 00:45:30 145.880/145.840
JUGNU 29 Aug 00:38:52 00:39:45 10° 185° (S) 00:40:38 437.505
POLYITAN 1 29 Aug 00:40:38 00:44:19 30° 102° (ESE) 00:48:01 437.675
TIGRISAT 29 Aug 00:43:54 00:46:55 19° 282° (WNW) 00:49:58 435.000
PCSat 29 Aug 00:46:20 00:49:47 17° 250° (WSW) 00:53:15 145.827
Cosmos 2499 29 Aug 00:46:49 00:53:41 49° 87° (E) 01:01:01 435.465 / 435.565
NANOSAT C BR1 29 Aug 00:48:10 00:52:00 36° 102° (ESE) 00:55:51 145.865
AUBIESAT-1 29 Aug 00:58:23 01:02:41 61° 255° (WSW) 01:07:12 437.475
M-CUBED/EXP-1 PRIME 29 Aug 01:05:10 01:09:13 38° 255° (WSW) 01:13:28 437.505
50 SAT 29 Aug 01:06:44 01:10:09 41° 78° (ENE) 01:13:31 437.505
DANDE 29 Aug 01:08:10 01:11:22 54° 274° (W) 01:14:01 436.750
JAS-2 29 Aug 01:09:57 01:17:07 43° 104° (ESE) 01:24:25 435.910
CUBEBUG 1 29 Aug 01:12:33 01:16:54 70° 77° (ENE) 01:21:14 437.445
VELOX 1 29 Aug 01:13:11 01:17:30 53° 78° (ENE) 01:21:48 145.980
BUGSAT 1 29 Aug 01:25:00 01:28:43 36° 102° (ESE) 01:32:24 437.445
SPROUT 29 Aug 01:25:48 01:29:40 32° 78° (ENE) 01:33:31 437.525
DX 1 29 Aug 01:27:05 01:31:18 50° 78° (ENE) 01:35:30 434.975-435.025
QB50P1 29 Aug 01:32:40 01:36:37 41° 282° (WNW) 01:40:34 145.935-145.965
O/OREOS (USA 219) 29 Aug 01:34:27 01:38:40 36° 76° (ENE) 01:42:53 437.305
POPSAT HIP 1 29 Aug 01:43:03 01:46:43 30° 282° (WNW) 01:50:24 437.405
ESTCUBE 1 29 Aug 02:00:03 02:02:39 15° 258° (WSW) 02:05:15 437.505/2401.250
AISAT 29 Aug 02:02:45 02:06:31 27° 258° (WSW) 02:10:17 437.250
UKube-1 29 Aug 02:05:28 02:09:44 60° 258° (WSW) 02:13:58 .
Oscar 19 29 Aug 02:05:29 02:08:38 16° 103° (ESE) 02:11:47 437.125/150
DUCHIFAT 1 29 Aug 02:10:50 02:13:08 15° 282° (WNW) 02:15:26 145.980
SRMSAT 29 Aug 02:15:25 02:17:57 13° 189° (S) 02:20:30 437.500
GONETS M04 29 Aug 02:20:58 02:27:22 23° 267° (W) 02:33:49
JUGNU 29 Aug 02:28:52 02:29:59 10° 174° (S) 02:31:05 437.505
RS-15 29 Aug 02:30:59 02:40:46 37° 292° (WNW) 02:51:02 29.354- 29.394
Cosmos 2499 29 Aug 02:42:34 02:46:35 16° 265° (W) 02:50:45 435.465 / 435.565
JAS-2 29 Aug 02:55:50 03:01:44 25° 283° (WNW) 03:07:51 435.910
TISAT 1 29 Aug 03:16:19 03:20:21 42° 258° (WSW) 03:24:22 437.305
SWISSCUBE 29 Aug 03:20:13 03:24:07 25° 78° (ENE) 03:28:00 437.505
Gurwin Techsat 1B 29 Aug 03:22:32 03:27:43 55° 103° (ESE) 03:32:54 435.225
ITAMSAT 1 29 Aug 03:24:32 03:25:08 10° 104° (ESE) 03:25:45 435.822/435.867
BEESAT 29 Aug 03:36:44 03:41:06 36° 78° (ENE) 03:45:27 436.000
AO-85 29 Aug 03:42:04 03:43:05 10° 112° (ESE) 03:44:06 145.980
Oscar 19 29 Aug 03:43:12 03:47:40 30° 283° (WNW) 03:52:09 437.125/150
JUGNU 29 Aug 04:15:50 04:19:55 19° 165° (SSE) 04:23:59 437.505
ITUPSAT 1 29 Aug 04:24:38 04:29:17 51° 258° (WSW) 04:33:53 437.325
AO-7 29 Aug 04:24:52 04:31:59 32° 106° (ESE) 04:39:05 29.400- 29.500
SWISSCUBE 29 Aug 04:58:42 05:01:38 16° 257° (WSW) 05:04:34 437.505
ITAMSAT 1 29 Aug 04:59:21 05:04:18 46° 282° (WNW) 05:09:16 435.822/435.867
KKS-1 29 Aug 05:02:48 05:06:44 31° 78° (ENE) 05:10:39 437.445
MOZHAYETS 4 29 Aug 05:16:40 05:21:15 70° 79° (ENE) 05:25:47
BEESAT 29 Aug 05:17:21 05:18:35 11° 257° (WSW) 05:19:50 436.000
AO-85 29 Aug 05:18:08 05:23:23 53° 291° (WNW) 05:28:37 145.980
STARS 29 Aug 05:35:16 05:39:17 34° 78° (ENE) 05:43:17 437.465
SRMSAT 29 Aug 05:55:21 05:58:37 15° 168° (SSE) 06:01:51 437.500
Cosmos 2491 29 Aug 06:00:16 06:06:47 23° 87° (E) 06:13:16 435.465 / 435.565
JUGNU 29 Aug 06:03:38 06:09:18 44° 160° (SSE) 06:15:00 437.505
AO-7 29 Aug 06:17:12 06:24:23 34° 286° (WNW) 06:31:38 29.400- 29.500
HORYU 2 29 Aug 06:37:02 06:41:26 80° 102° (ESE) 06:45:52 437.375
CUBESAT XI-V 29 Aug 06:40:05 06:44:38 65° 78° (ENE) 06:49:11 437.345
KKS-1 29 Aug 06:41:33 06:43:01 11° 257° (WSW) 06:44:29 437.445
YUBILEINY 29 Aug 06:44:20 06:52:44 48° 93° (E) 07:01:05 435.215
GOMX 1 29 Aug 07:00:30 07:03:25 16° 100° (E) 07:06:14 467.674
NOAA 18 29 Aug 07:01:24 07:04:38 16° 104° (ESE) 07:07:52 137.9125
ISS 29 Aug 07:13:46 07:16:54 43° 306° (NW) 07:20:00 145.825
BRITE-PL 29 Aug 07:28:47 07:34:15 73° 282° (WNW) 07:39:21 437.365/2234.400
Cubesat XI-IV 29 Aug 07:37:02 07:42:10 51° 103° (ESE) 07:47:20 437.490
SRMSAT 29 Aug 07:43:07 07:48:23 31° 161° (SSE) 07:53:38 437.500
NOAA 15 29 Aug 07:45:18 07:50:36 90° 124° (SE) 07:55:56 137.62
CUTE-I 29 Aug 07:48:18 07:53:35 71° 103° (ESE) 07:58:54 437.470
JUGNU 29 Aug 07:52:26 07:58:24 68° 339° (NNW) 08:04:22 437.505
LilacSat-2 29 Aug 07:53:20 07:57:06 83° 278° (W) 08:00:53 437.200
Cosmos 2491 29 Aug 07:54:58 08:03:13 45° 267° (W) 08:11:30 435.465 / 435.565
Cosmos 2504 29 Aug 08:03:05 08:11:48 61° 93° (E) 08:20:05 435.465 / 435.565
BEESAT 3 29 Aug 08:20:37 08:22:48 15° 112° (ESE) 08:24:59 437.485
